Flag for Germany Weather past 2 weeks in Varel, Lower Saxony, Germany

Now
50 °F

Fog.


Feels Like: 46 °F
Forecast: 49 / 58 °F
Wind: 10 mph from Southwest

Location: Wittmundhaven

Current Time: Oct 23, 2014 at 11:47:12 AM

Latest Report: Oct 23, 2014 at 10:20 AM


Visibility: 2 mi

Pressure: 30.15 "Hg

Humidity: 94%

Dew point: 48 °F

Location of VarelLocation

Historic Weather in Varel — Graph

°F

Varel temperature yesterday

Maximum temperature yesterday: 54 °F (at 1:20 PM)
Minimum temperature yesterday: 48 °F (at 12:20 AM)
Average temperature yesterday: 52 °F

Past Weeks' High & Low Weather Summary

 TemperatureHumidityPressure
High68 °F (Oct 19, 12:20 PM)100% (Oct 11, 3:20 AM)30.15 "Hg (Oct 11, 3:20 AM)
Low45 °F (Oct 11, 7:20 AM)58% (Oct 22, 10:20 PM)29.33 "Hg (Oct 21, 4:20 PM)
Average55 °F88%29.78 "Hg
* Reported Oct 8 10:20 AM — Oct 23 10:20 AM, Varel, Weather by CustomWeather, © 2014

Note: Actual official high and low records may vary slightly from our data, if they occured in-between our weather recording intervals... More about our weather records

Advertising

Varel weather history for previous 24 hours

 ConditionsComfort  
Time TempWeatherWind HumidityBarometerVisibility
10:20 AM
Oct 23
50 °FFog.10 mph94%30.15 "Hg2 mi
9:20 AM50 °FDrizzle. Fog.7 mph94%30.15 "Hg2 mi
8:20 AM50 °FDrizzle. Fog.6 mph88%30.12 "Hg3 mi
7:20 AM48 °FPassing clouds.5 mph94%30.12 "HgN/A
6:20 AM48 °FPassing clouds.5 mph87%30.09 "HgN/A
5:20 AM48 °FPassing clouds.3 mph87%30.09 "HgN/A
4:20 AM48 °FPassing clouds.3 mph87%30.12 "HgN/A
3:20 AM46 °FPassing clouds.3 mph82%30.12 "HgN/A
2:20 AM48 °FPartly cloudy.3 mph76%30.09 "HgN/A
1:20 AM48 °FPassing clouds.5 mph71%30.09 "HgN/A
12:20 AM50 °FPassing clouds.5 mph71%30.09 "HgN/A
11:20 PM
Oct 22
52 °FPassing clouds.6 mph67%30.09 "HgN/A
10:20 PM52 °FPassing clouds.13 mph58%30.09 "HgN/A
9:20 PM52 °FPassing clouds.9 mph62%30.07 "HgN/A
8:20 PM52 °FPassing clouds.14 mph62%30.04 "HgN/A
7:20 PM52 °FPassing clouds.14 mph62%30.04 "HgN/A
6:20 PM52 °FPartly sunny.15 mph67%30.01 "HgN/A
5:20 PM54 °FPartly sunny.16 mph63%29.98 "Hg6 mi
4:20 PM54 °FPartly sunny.18 mph67%29.95 "HgN/A
3:20 PM54 °FPartly sunny.21 mph67%29.92 "HgN/A
2:20 PM54 °FPartly sunny.24 mph67%29.89 "HgN/A
1:20 PM54 °FPartly sunny.23 mph67%29.89 "HgN/A
12:20 PM52 °FLight rain. Partly sunny.22 mph72%29.86 "HgN/A
11:20 AM52 °FDrizzle. Partly sunny.26 mph77%29.83 "Hg4 mi
Weather by CustomWeather, © 2014

See weather overviewHow to use our weather pages